Regional Weather Roundup
Issued by NWS

Home | Current Version | Previous Version | Text Only | Print | Product List | Glossary Off
Versions: 1 2 3 4 5 6 7 8 9 10 11 12 13 14 15 16 17 18 19 20 21 22 23 24 25 26 27

000
ASUS45 KPSR 240510
RWRAZ

ARIZONA HOURLY REGIONAL WEATHER ROUNDUP
NATIONAL WEATHER SERVICE PHOENIX AZ
1000 PM MST SAT SEP 23 2017

NOTE: FAIR INDICATES FEW OR NO CLOUDS BELOW 12,000 FEET WITH NO
SIGNIFICANT WEATHER AND/OR OBSTRUCTIONS TO VISIBILITY.

AZZ001>003-036-240600-
NORTHWEST ARIZONA

CITY           SKY/WX    TMP DP  RH WIND       PRES   REMARKS
BULLHEAD CITY  CLEAR     73  25  16 N20       29.80R
KINGMAN        CLEAR     57  25  29 N14       29.91R
$$

AZZ004>008-015-016-018-240600-
NORTH CENTRAL ARIZONA

CITY           SKY/WX    TMP DP  RH WIND       PRES   REMARKS
GRAND CANYON   PTCLDY    43  22  43 NW6       29.96R
WILLIAMS       CLEAR     39  21  48 NW6       29.98R WCI  35
PRESCOTT       CLEAR     49  23  36 W3        29.93R
FLAGSTAFF      CLEAR     43  20  39 W5        29.96S
PAYSON           N/A     52  19  28 CALM      29.93S
PAGE           MOCLDY    55  27  34 SW5       29.87R
$$

AZZ009>014-017-240600-
NORTHEAST ARIZONA

CITY           SKY/WX    TMP DP  RH WIND       PRES   REMARKS
WINSLOW        CLEAR     51  17  26 SW8       29.90R
SAINT JOHNS    CLEAR     53  16  23 W12       29.91R
WINDOW ROCK    PTCLDY    46  16  30 S3        29.94S
SHOW LOW       CLEAR     45  25  45 S7        29.97R
$$

AZZ540-542>544-546-548-240600-
GREATER PHOENIX AREA

CITY           SKY/WX    TMP DP  RH WIND       PRES   REMARKS
PHOENIX        CLEAR     77  31  18 W9        29.73R
BUCKEYE          N/A     68  23  18 N8        29.75S
LUKE AFB       CLEAR     69  30  23 NW7       29.73S
DEER VALLEY    CLEAR     71  28  20 NW5       29.75R
SCOTTSDALE     CLEAR     73  30  20 CALM      29.77R
MESA-GATEWAY   CLEAR     72  28  20 CALM      29.76S
$$

AZZ539-553-240600-
SOUTHWEST MARICOPA COUNTY AND PINAL COUNTY

CITY           SKY/WX    TMP DP  RH WIND       PRES   REMARKS
CASA GRANDE    NOT AVBL
GILA BEND      FAIR      70  29  21 SW5       29.74R
$$

AZZ503-504-507>509-240600-
SOUTHEAST ARIZONA

CITY           SKY/WX    TMP DP  RH WIND       PRES   REMARKS
TUCSON         CLEAR     73  27  18 NW7       29.82S
DAVIS-MONTHAN  CLEAR     70  26  19 NW8       29.81R
NOGALES        CLEAR     59  33  37 CALM      29.88R
SIERRA VISTA   CLEAR     63  32  31 SW10      29.91R
DOUGLAS        CLEAR     64  39  39 CALM      29.87R
SAFFORD        CLEAR     69  21  16 NW13      29.78R
$$

AZZ532-240600-
SOUTHWEST ARIZONA

CITY           SKY/WX    TMP DP  RH WIND       PRES   REMARKS
YUMA           CLEAR     75  35  23 NW6       29.74R
$$

CAZ041-043-047-048-061-525>527-560>570-240600-
SOUTHERN CALIFORNIA

CITY           SKY/WX    TMP DP  RH WIND       PRES   REMARKS
DOWNTOWN L.A.  CLEAR     65  57  75 CALM      29.83F
L.A. AIRPORT   CLEAR     64  56  75 SW5       29.84S
SAN DIEGO      PTCLDY    66  56  70 N5        29.87S
BURBANK        CLEAR     65  51  60 CALM      29.84S
ONTARIO        CLEAR     62  51  67 SW6       29.86S
RIVERSIDE      CLEAR     64  52  64 CALM      29.86S
PALM SPRINGS   CLEAR     75  48  38 NW8       29.81R
EL CENTRO NAS  CLEAR     71  46  40 W8        29.77R
IMPERIAL       CLEAR     70  50  49 W8        29.74R
BLYTHE         CLEAR     74  25  16 NW9       29.75S
NEEDLES        CLEAR     74  12   9 NW8       29.80R
$$

NVZ020-UTZ003-240600-
SOUTHERN NEVADA-UTAH

CITY           SKY/WX    TMP DP  RH WIND       PRES   REMARKS
LAS VEGAS      CLEAR     62  34  35 NE16G24   29.90R
SALT LAKE CITY LGT RAIN  46  43  89 SE7       29.95F
$$

NMZ009-TXZ055-240600-
NEW MEXICO-WEST TEXAS

CITY           SKY/WX    TMP DP  RH WIND       PRES   REMARKS
ALBUQUERQUE    PTCLDY    62  53  72 SW6       29.85R
EL PASO        PTCLDY    80  42  25 W14       29.79R
$$


........................KEY........................
SKY/WX - SKY CONDITION/WEATHER
TMP    - TEMPERATURE IN FAHRENHEIT
DP     - DEW POINT IN FAHRENHEIT
RH     - RELATIVE HUMIDITY IN PERCENT
WIND   - DIRECTION AND SPEED IN MILES PER HOUR (MPH)
VRB    - VARIABLE WIND DIRECTION
PRES   - MEAN SEA LEVEL PRESSURE IN INCHES OF MERCURY
         F - FALLING PRESSURE   R - RISING PRESSURE
         S - STEADY PRESSURE
VSB    - VISIBILITY IN MILES
HX     - HEAT INDEX IN FAHRENHEIT
WCI    - WIND CHILL INDEX IN FAHRENHEIT
TC     - TEMPERATURE IN CELSIUS WHICH IS ALSO KNOWN AS
         TEMPERATURE IN CENTIGRADE
AFB    - AIR FORCE BASE
         LUKE AFB IS LUKE AIR FORCE BASE
         DAVIS-MONTHAN IS DAVIS-MONTHAN AIR FORCE BASE
NAS    - NAVAL AIR STATION
         EL CENTRO NAS IS EL CENTRO NAVAL AIR STATION
N/A    - NOT AVAILABLE





USA.gov is the U.S. government's official web portal to all federal, state and local government web resources and services.